User: anonymous   Login
Location: Unspecified
(0.0000°N, 0.0000°E)
Time: 02:59:15
(UTC+00:00)
Language:

DODGE - Orbit

View from above orbital plane
View from above orbital plane
View from above satellite
View from above satellite

Ground track
Ground track

The orbit data is extracted from the following two-line orbital elements,

1  2867U 67066F   18113.43842571 -.00000123 +00000-0 +00000-0 0  9993
2  2867 004.6272 290.0697 0051812 307.7610 060.0085 01.09168270100880
Epoch (UTC): 23 April 2018 10:31:19
Eccentricity: 0.0051812
inclination: 4.6272°
perigee height: 33257 km
apogee height: 33669 km
right ascension of ascending node: 290.0697°
argument of perigee: 307.7610°
revolutions per day: 1.09168270
mean anomaly at epoch: 60.0085°
orbit number at epoch: 10088

The dashed part of the orbit path shows where the satellite is in the earth's shadow,  

DLR